Location: Buchberg
(46.9333°N, 15.8500°E)
Time: 04:33:14
(UTC+00:00)

Meteor 1-28 Rocket - Pass Details

Date: 14 July 2020
Orbit: 505 x 522 km, 97.3° (Epoch: 11 August)

Event Time Altitude Azimuth Distance (km) Brightness Sun altitude
Exits shadow 02:31:15 - 198° (SSW) 2,086 5.7 -6.9°
Reaches altitude 10° 02:32:14 10° 204° (SSW) 1,719 5.3 -6.8°
Maximum altitude 02:35:27 28° 265° (W) 990 4.2 -6.4°
Drops below altitude 10° 02:38:42 10° 325° (NW) 1,740 6.0 -5.9°
Sets 02:41:02 0° 338° (NNW) 2,635 7.0 -5.6°
